Location: Battersea Observatory
(44.4318°N, 76.3841°W)
Time: 05:46:19
(UTC-05:00)

Transit 4A - All Passes

Search period start: 19 January 2022 00:00
Search period end: 29 January 2022 00:00
Orbit: 864 x 981 km, 66.8° (Epoch: 18 January)

Date Brightness Start Highest point End Pass type
(mag) Time Alt. Az. Time Alt. Az. Time Alt. Az.
19 Jan - 07:56:11 10° S 08:01:33 36° ESE 08:07:06 10° NE daylight
19 Jan - 09:42:03 10° WSW 09:47:48 45° NW 09:53:45 10° NNE daylight
19 Jan - 11:32:51 10° NW 11:35:55 14° NNW 11:39:01 10° N daylight
19 Jan - 15:10:59 10° N 15:14:56 17° NNE 15:18:52 10° ENE daylight
19 Jan - 16:56:26 10° NNW 17:02:44 57° NE 17:09:01 10° SE daylight
19 Jan - 18:43:24 10° NW 18:48:47 29° WSW 18:54:09 10° SSW visible
20 Jan - 08:04:53 10° S 08:10:40 53° ESE 08:16:40 10° NE daylight
20 Jan - 09:51:52 10° WSW 09:57:19 33° NW 10:02:55 10° NNE daylight
20 Jan - 11:43:50 10° NW 11:45:49 11° NNW 11:47:49 10° N daylight
20 Jan - 15:20:00 10° NNW 15:24:42 21° NE 15:29:24 10° E daylight
20 Jan - 17:05:41 10° NNW 17:12:07 78° ENE 17:18:32 10° SE daylight
20 Jan - 18:53:21 10° WNW 18:57:48 20° WSW 19:02:14 10° SSW visible
21 Jan - 06:32:29 10° ESE 06:34:38 12° E 06:36:49 10° ENE visible
21 Jan - 08:13:53 10° SSW 08:19:52 76° ESE 08:26:05 10° NE daylight
21 Jan - 10:01:56 10° W 10:06:55 25° NW 10:12:02 10° NNE daylight
21 Jan - 13:44:57 10° N 13:45:33 10° NNE 13:46:10 10° NNE daylight
21 Jan - 15:29:04 10° NNW 15:34:23 27° NE 15:39:42 10° E daylight
21 Jan - 17:15:01 10° NW 17:21:24 76° WSW 17:27:47 10° SSE daylight
21 Jan - 19:04:00 10° WNW 19:06:44 13° W 19:09:28 10° SW visible
22 Jan - 06:39:31 10° SSE 06:43:33 19° ESE 06:47:40 10° ENE visible
22 Jan - 08:23:09 10° SW 08:29:09 77° WNW 08:35:25 10° NNE daylight
22 Jan - 10:12:13 10° W 10:16:37 20° NW 10:21:06 10° NNE daylight
22 Jan - 13:53:11 10° N 13:55:31 12° NNE 13:57:51 10° NE daylight
22 Jan - 15:38:11 10° NNW 15:43:59 35° NE 15:49:47 10° ESE daylight
22 Jan - 17:24:25 10° NW 17:30:37 54° WSW 17:36:48 10° S visible
23 Jan - 06:47:34 10° SSE 06:52:32 28° ESE 06:57:40 10° NE visible
23 Jan - 08:32:37 10° SW 08:38:32 55° NW 08:44:40 10° NNE daylight
23 Jan - 10:22:44 10° WNW 10:26:24 16° NNW 10:30:07 10° N daylight
23 Jan - 14:02:02 10° N 14:05:25 15° NNE 14:08:48 10° ENE daylight
23 Jan - 15:47:20 10° NNW 15:53:29 47° NE 15:59:38 10° ESE daylight
23 Jan - 17:33:59 10° NW 17:39:46 37° WSW 17:45:32 10° S visible
24 Jan - 06:56:03 10° S 07:01:36 41° ESE 07:07:21 10° NE visible
24 Jan - 08:42:19 10° WSW 08:47:59 40° NW 08:53:51 10° NNE daylight
24 Jan - 10:33:30 10° NW 10:36:15 13° NNW 10:39:02 10° N daylight
24 Jan - 14:11:00 10° N 14:15:14 18° NNE 14:19:29 10° ENE daylight
24 Jan - 15:56:33 10° NNW 16:02:55 64° NE 16:09:16 10° SE daylight
24 Jan - 17:43:43 10° NW 17:48:50 26° WSW 17:53:55 10° SSW visible
25 Jan - 07:04:52 10° SSW 07:10:45 60° ESE 07:16:52 10° NE daylight
25 Jan - 08:52:15 10° WSW 08:57:33 30° NW 09:03:00 10° NNE daylight
25 Jan - 10:44:39 10° NNW 10:46:11 11° NNW 10:47:44 10° N daylight
25 Jan - 14:20:03 10° NNW 14:24:59 23° NE 14:29:56 10° E daylight
25 Jan - 16:05:50 10° NNW 16:12:16 87° ENE 16:18:41 10° SSE daylight
25 Jan - 17:53:51 10° WNW 17:57:48 17° WSW 18:01:47 10° SW visible
26 Jan - 05:31:35 10° SE 05:34:37 14° E 05:37:42 10° ENE visible
26 Jan - 07:13:58 10° SSW 07:19:59 86° ESE 07:26:15 10° NNE daylight
26 Jan - 09:02:23 10° W 09:07:11 23° NW 09:12:07 10° NNE daylight
26 Jan - 12:44:29 10° N 12:45:56 11° NNE 12:47:23 10° NNE daylight
26 Jan - 14:29:07 10° NNW 14:34:38 29° NE 14:40:09 10° ESE daylight
26 Jan - 16:15:10 10° NW 16:21:32 67° WSW 16:27:52 10° SSE daylight
26 Jan - 18:05:11 10° W 18:06:44 11° W 18:08:17 10° WSW visible
27 Jan - 05:39:07 10° SSE 05:43:34 22° ESE 05:48:07 10° ENE visible
27 Jan - 07:23:17 10° SW 07:29:18 69° NW 07:35:33 10° NNE daylight
27 Jan - 09:12:44 10° WNW 09:16:54 18° NNW 09:21:10 10° N daylight
27 Jan - 12:53:08 10° N 12:55:52 13° NNE 12:58:38 10° NE daylight
27 Jan - 14:38:15 10° NNW 14:44:12 38° NE 14:50:08 10° ESE daylight
27 Jan - 16:24:38 10° NW 16:30:43 47° WSW 16:36:47 10° S daylight
28 Jan - 05:47:21 10° S 05:52:35 32° ESE 05:57:59 10° NE visible
28 Jan - 07:32:51 10° SW 07:38:42 49° NW 07:44:47 10° NNE daylight
28 Jan - 09:23:20 10° WNW 09:26:42 15° NNW 09:30:09 10° N daylight
28 Jan - 13:02:02 10° N 13:05:45 16° NNE 13:09:28 10° ENE daylight
28 Jan - 14:47:26 10° NNW 14:53:41 52° NE 14:59:55 10° SE daylight
28 Jan - 16:34:14 10° NW 16:39:50 33° WSW 16:45:24 10° S daylight
